Time,TemperatureF,DewpointF,PressureIn,WindDirection,WindDirectionDegrees,WindSpeedMPH,WindSpeedGustMPH,Humidity,HourlyPrecipIn,Conditions,Clouds,dailyrainin,SoftwareType,DateUTC
2013-04-19 00:00:00,74.0,-99.9,29.87,SSE,160,23.0,-999.0,-999,-99.99,,,-99.99,,2013-04-19 05:00:00,
2013-04-19 00:22:00,74.0,-99.9,29.86,SSE,150,23.0,-999.0,-999,-99.99,,,-99.99,,2013-04-19 05:22:00,
2013-04-19 00:30:00,73.0,-99.9,29.85,SSE,160,22.0,-999.0,-999,-99.99,,,-99.99,,2013-04-19 05:30:00,
2013-04-19 00:42:00,74.0,-99.9,29.87,SSE,160,23.0,-999.0,-999,-99.99,,,-99.99,,2013-04-19 05:42:00,
2013-04-19 00:52:00,74.0,-99.9,29.87,SSE,160,23.0,-999.0,-999,-99.99,,,-99.99,,2013-04-19 05:52:00,
2013-04-19 01:12:00,73.0,-99.9,29.85,SSE,160,22.0,-999.0,-999,-99.99,,,-99.99,,2013-04-19 06:12:00,
2013-04-19 01:22:00,73.0,-99.9,29.85,SSE,160,22.0,-999.0,-999,-99.99,,,-99.99,,2013-04-19 06:22:00,
2013-04-19 01:30:00,73.0,-99.9,29.83,SSE,160,23.0,-999.0,-999,-99.99,,,-99.99,,2013-04-19 06:30:00,
2013-04-19 02:00:00,73.0,-99.9,29.82,South,170,22.0,-999.0,-999,-99.99,,,-99.99,,2013-04-19 07:00:00,
2013-04-19 02:22:00,73.0,-99.9,29.83,SSE,160,23.0,-999.0,-999,-99.99,,,-99.99,,2013-04-19 07:22:00,
2013-04-19 02:30:00,73.0,-99.9,29.82,South,180,23.0,-999.0,-999,-99.99,,,-99.99,,2013-04-19 07:30:00,
2013-04-19 02:52:00,73.0,-99.9,29.82,South,170,22.0,-999.0,-999,-99.99,,,-99.99,,2013-04-19 07:52:00,
2013-04-19 03:00:00,73.0,-99.9,29.81,South,170,24.0,-999.0,-999,-99.99,,,-99.99,,2013-04-19 08:00:00,
2013-04-19 03:22:00,73.0,-99.9,29.82,South,180,23.0,-999.0,-999,-99.99,,,-99.99,,2013-04-19 08:22:00,
2013-04-19 03:30:00,73.0,-99.9,29.81,South,180,24.0,-999.0,-999,-99.99,,,-99.99,,2013-04-19 08:30:00,
2013-04-19 03:42:00,73.0,-99.9,29.81,South,170,24.0,-999.0,-999,-99.99,,,-99.99,,2013-04-19 08:42:00,
2013-04-19 03:52:00,73.0,-99.9,29.81,South,170,24.0,-999.0,-999,-99.99,,,-99.99,,2013-04-19 08:52:00,
2013-04-19 04:00:00,74.0,-99.9,29.81,South,190,24.0,-999.0,-999,-99.99,,,-99.99,,2013-04-19 09:00:00,
2013-04-19 04:22:00,73.0,-99.9,29.81,South,180,24.0,-999.0,-999,-99.99,,,-99.99,,2013-04-19 09:22:00,
2013-04-19 04:30:00,74.0,-99.9,29.81,South,190,25.0,-999.0,-999,-99.99,,,-99.99,,2013-04-19 09:30:00,
2013-04-19 04:52:00,74.0,-99.9,29.81,South,190,24.0,-999.0,-999,-99.99,,,-99.99,,2013-04-19 09:52:00,
2013-04-19 05:00:00,74.0,-99.9,29.81,SSW,200,26.0,-999.0,-999,-99.99,,,-99.99,,2013-04-19 10:00:00,
2013-04-19 05:13:00,74.0,-99.9,29.81,South,190,25.0,-999.0,-999,-99.99,,,-99.99,,2013-04-19 10:13:00,
2013-04-19 05:23:00,74.0,-99.9,29.81,South,190,25.0,-999.0,-999,-99.99,,,-99.99,,2013-04-19 10:23:00,
2013-04-19 05:30:00,74.0,-99.9,29.82,SSW,200,24.0,-999.0,-999,-99.99,,,-99.99,,2013-04-19 10:30:00,
2013-04-19 05:42:00,74.0,-99.9,29.81,SSW,200,26.0,-999.0,-999,-99.99,,,-99.99,,2013-04-19 10:42:00,
2013-04-19 05:52:00,74.0,-99.9,29.81,SSW,200,26.0,-999.0,-999,-99.99,,,-99.99,,2013-04-19 10:52:00,
2013-04-19 06:00:00,74.0,-99.9,29.81,SSW,200,20.0,-999.0,-999,-99.99,,,-99.99,,2013-04-19 11:00:00,
2013-04-19 06:22:00,74.0,-99.9,29.82,SSW,200,24.0,-999.0,-999,-99.99,,,-99.99,,2013-04-19 11:22:00,
2013-04-19 06:30:00,-999.0,-99.9,29.84,NW,320,31.0,-999.0,-999,-99.99,,,-99.99,,2013-04-19 11:30:00,
2013-04-19 06:53:00,74.0,-99.9,29.81,SSW,200,20.0,-999.0,-999,-99.99,,,-99.99,,2013-04-19 11:53:00,
2013-04-19 07:00:00,-999.0,-99.9,29.88,NW,320,29.0,-999.0,-999,-99.99,,,-99.99,,2013-04-19 12:00:00,
2013-04-19 07:22:00,-999.0,-99.9,29.84,NW,320,31.0,-999.0,-999,-99.99,,,-99.99,,2013-04-19 12:22:00,
2013-04-19 07:30:00,-999.0,-99.9,29.90,NNW,330,28.0,-999.0,-999,-99.99,,,-99.99,,2013-04-19 12:30:00,
2013-04-19 07:42:00,-999.0,-99.9,29.88,NW,320,29.0,-999.0,-999,-99.99,,,-99.99,,2013-04-19 12:42:00,
2013-04-19 07:53:00,-999.0,-99.9,29.88,NW,320,29.0,-999.0,-999,-99.99,,,-99.99,,2013-04-19 12:53:00,
2013-04-19 08:00:00,60.0,-99.9,29.93,NW,320,30.0,-999.0,-999,-99.99,,,-99.99,,2013-04-19 13:00:00,
2013-04-19 08:22:00,-999.0,-99.9,29.90,NNW,330,28.0,-999.0,-999,-99.99,,,-99.99,,2013-04-19 13:22:00,
2013-04-19 08:30:00,59.0,-99.9,29.96,NNW,330,32.0,-999.0,-999,-99.99,,,-99.99,,2013-04-19 13:30:00,
2013-04-19 08:52:00,60.0,-99.9,29.93,NW,320,30.0,-999.0,-999,-99.99,,,-99.99,,2013-04-19 13:52:00,
2013-04-19 09:00:00,57.0,-99.9,30.01,NW,320,29.0,-999.0,-999,-99.99,,,-99.99,,2013-04-19 14:00:00,
2013-04-19 09:12:00,59.0,-99.9,29.96,NNW,330,32.0,-999.0,-999,-99.99,,,-99.99,,2013-04-19 14:12:00,
2013-04-19 09:22:00,59.0,-99.9,29.96,NNW,330,32.0,-999.0,-999,-99.99,,,-99.99,,2013-04-19 14:22:00,
2013-04-19 09:30:00,56.0,-99.9,29.99,NNW,330,29.0,-999.0,-999,-99.99,,,-99.99,,2013-04-19 14:30:00,
2013-04-19 09:52:00,57.0,-99.9,30.01,NW,320,29.0,-999.0,-999,-99.99,,,-99.99,,2013-04-19 14:52:00,
2013-04-19 10:00:00,56.0,-99.9,30.01,NNW,330,28.0,-999.0,-999,-99.99,,,-99.99,,2013-04-19 15:00:00,
2013-04-19 10:22:00,56.0,-99.9,29.99,NNW,330,29.0,-999.0,-999,-99.99,,,-99.99,,2013-04-19 15:22:00,
2013-04-19 10:30:00,56.0,-99.9,30.02,NNW,330,25.0,-999.0,-999,-99.99,,,-99.99,,2013-04-19 15:30:00,
2013-04-19 10:53:00,56.0,-99.9,30.01,NNW,330,28.0,-999.0,-999,-99.99,,,-99.99,,2013-04-19 15:53:00,
2013-04-19 11:00:00,55.0,-99.9,29.99,NW,320,28.0,-999.0,-999,-99.99,,,-99.99,,2013-04-19 16:00:00,
2013-04-19 11:23:00,56.0,-99.9,30.02,NNW,330,25.0,-999.0,-999,-99.99,,,-99.99,,2013-04-19 16:23:00,
2013-04-19 11:30:00,54.0,-99.9,30.01,NNW,340,25.0,-999.0,-999,-99.99,,,-99.99,,2013-04-19 16:30:00,
2013-04-19 11:43:00,55.0,-99.9,29.99,NW,320,28.0,-999.0,-999,-99.99,,,-99.99,,2013-04-19 16:43:00,
2013-04-19 11:53:00,55.0,-99.9,29.99,NW,320,28.0,-999.0,-999,-99.99,,,-99.99,,2013-04-19 16:53:00,
2013-04-19 12:00:00,54.0,-99.9,30.01,NNW,330,24.0,-999.0,-999,-99.99,,,-99.99,,2013-04-19 17:00:00,
2013-04-19 12:22:00,54.0,-99.9,30.01,NNW,340,25.0,-999.0,-999,-99.99,,,-99.99,,2013-04-19 17:22:00,
2013-04-19 12:30:00,54.0,-99.9,30.03,NNW,340,28.0,-999.0,-999,-99.99,,,-99.99,,2013-04-19 17:30:00,
2013-04-19 12:52:00,54.0,-99.9,30.01,NNW,330,24.0,-999.0,-999,-99.99,,,-99.99,,2013-04-19 17:52:00,
2013-04-19 13:00:00,54.0,-99.9,30.05,NW,320,30.0,-999.0,-999,-99.99,,,-99.99,,2013-04-19 18:00:00,
2013-04-19 13:13:00,54.0,-99.9,30.03,NNW,340,28.0,-999.0,-999,-99.99,,,-99.99,,2013-04-19 18:13:00,
2013-04-19 13:23:00,54.0,-99.9,30.03,NNW,340,28.0,-999.0,-999,-99.99,,,-99.99,,2013-04-19 18:23:00,
2013-04-19 13:30:00,53.0,-99.9,30.02,NNW,340,25.0,-999.0,-999,-99.99,,,-99.99,,2013-04-19 18:30:00,
2013-04-19 13:52:00,54.0,-99.9,30.05,NW,320,30.0,-999.0,-999,-99.99,,,-99.99,,2013-04-19 18:52:00,
2013-04-19 14:00:00,53.0,-99.9,30.01,NNW,340,29.0,-999.0,-999,-99.99,,,-99.99,,2013-04-19 19:00:00,
2013-04-19 14:22:00,53.0,-99.9,30.02,NNW,340,25.0,-999.0,-999,-99.99,,,-99.99,,2013-04-19 19:22:00,
2013-04-19 14:30:00,54.0,-99.9,30.01,NNW,340,21.0,-999.0,-999,-99.99,,,-99.99,,2013-04-19 19:30:00,
2013-04-19 14:42:00,53.0,-99.9,30.01,NNW,340,29.0,-999.0,-999,-99.99,,,-99.99,,2013-04-19 19:42:00,
2013-04-19 14:52:00,53.0,-99.9,30.01,NNW,340,29.0,-999.0,-999,-99.99,,,-99.99,,2013-04-19 19:52:00,
2013-04-19 15:00:00,53.0,-99.9,30.01,NNW,340,22.0,-999.0,-999,-99.99,,,-99.99,,2013-04-19 20:00:00,
2013-04-19 15:11:00,54.0,-99.9,30.01,NNW,340,21.0,-999.0,-999,-99.99,,,-99.99,,2013-04-19 20:11:00,
2013-04-19 15:22:00,54.0,-99.9,30.01,NNW,340,21.0,-999.0,-999,-99.99,,,-99.99,,2013-04-19 20:22:00,
2013-04-19 15:30:00,52.0,-99.9,30.01,NNW,340,22.0,-999.0,-999,-99.99,,,-99.99,,2013-04-19 20:30:00,
2013-04-19 15:42:00,53.0,-99.9,30.01,NNW,340,22.0,-999.0,-999,-99.99,,,-99.99,,2013-04-19 20:42:00,
2013-04-19 15:52:00,53.0,-99.9,30.01,NNW,340,22.0,-999.0,-999,-99.99,,,-99.99,,2013-04-19 20:52:00,
2013-04-19 16:00:00,52.0,-99.9,30.05,NNW,330,22.0,-999.0,-999,-99.99,,,-99.99,,2013-04-19 21:00:00,
2013-04-19 16:22:00,52.0,-99.9,30.01,NNW,340,22.0,-999.0,-999,-99.99,,,-99.99,,2013-04-19 21:22:00,
2013-04-19 16:30:00,52.0,-99.9,30.05,NNW,340,17.0,-999.0,-999,-99.99,,,-99.99,,2013-04-19 21:30:00,
2013-04-19 16:53:00,52.0,-99.9,30.05,NNW,330,22.0,-999.0,-999,-99.99,,,-99.99,,2013-04-19 21:53:00,
2013-04-19 17:00:00,52.0,-99.9,30.02,NNW,340,20.0,-999.0,-999,-99.99,,,-99.99,,2013-04-19 22:00:00,
2013-04-19 17:23:00,52.0,-99.9,30.05,NNW,340,17.0,-999.0,-999,-99.99,,,-99.99,,2013-04-19 22:23:00,
2013-04-19 17:30:00,52.0,-99.9,30.04,North,350,15.0,-999.0,-999,-99.99,,,-99.99,,2013-04-19 22:30:00,
2013-04-19 17:42:00,52.0,-99.9,30.02,NNW,340,20.0,-999.0,-999,-99.99,,,-99.99,,2013-04-19 22:42:00,
2013-04-19 17:52:00,52.0,-99.9,30.02,NNW,340,20.0,-999.0,-999,-99.99,,,-99.99,,2013-04-19 22:52:00,
2013-04-19 18:00:00,53.0,-99.9,30.05,NW,320,11.0,-999.0,-999,-99.99,,,-99.99,,2013-04-19 23:00:00,
2013-04-19 18:22:00,52.0,-99.9,30.04,North,350,15.0,-999.0,-999,-99.99,,,-99.99,,2013-04-19 23:22:00,
2013-04-19 18:30:00,53.0,-99.9,30.06,NW,310,11.0,-999.0,-999,-99.99,,,-99.99,,2013-04-19 23:30:00,
2013-04-19 18:42:00,53.0,-99.9,30.05,NW,320,11.0,-999.0,-999,-99.99,,,-99.99,,2013-04-19 23:42:00,
2013-04-19 18:53:00,53.0,-99.9,30.05,NW,320,11.0,-999.0,-999,-99.99,,,-99.99,,2013-04-19 23:53:00,
2013-04-19 19:00:00,53.0,-99.9,30.07,WNW,300,10.0,-999.0,-999,-99.99,,,-99.99,,2013-04-20 00:00:00,
2013-04-19 19:22:00,53.0,-99.9,30.06,NW,310,11.0,-999.0,-999,-99.99,,,-99.99,,2013-04-20 00:22:00,
2013-04-19 19:30:00,52.0,-99.9,30.08,WNW,290,10.0,-999.0,-999,-99.99,,,-99.99,,2013-04-20 00:30:00,
2013-04-19 19:52:00,53.0,-99.9,30.07,WNW,300,10.0,-999.0,-999,-99.99,,,-99.99,,2013-04-20 00:52:00,
2013-04-19 20:00:00,52.0,-99.9,30.10,WNW,290,13.0,-999.0,-999,-99.99,,,-99.99,,2013-04-20 01:00:00,
2013-04-19 20:21:00,52.0,-99.9,30.08,WNW,290,10.0,-999.0,-999,-99.99,,,-99.99,,2013-04-20 01:21:00,
2013-04-19 20:30:00,52.0,-99.9,30.11,NW,310,14.0,-999.0,-999,-99.99,,,-99.99,,2013-04-20 01:30:00,
2013-04-19 20:52:00,52.0,-99.9,30.10,WNW,290,13.0,-999.0,-999,-99.99,,,-99.99,,2013-04-20 01:52:00,
2013-04-19 21:00:00,54.0,-99.9,30.11,NNW,330,16.0,-999.0,-999,-99.99,,,-99.99,,2013-04-20 02:00:00,
2013-04-19 21:22:00,52.0,-99.9,30.11,NW,310,14.0,-999.0,-999,-99.99,,,-99.99,,2013-04-20 02:22:00,
2013-04-19 21:30:00,54.0,-99.9,30.13,NNW,340,17.0,-999.0,-999,-99.99,,,-99.99,,2013-04-20 02:30:00,
2013-04-19 21:52:00,54.0,-99.9,30.11,NNW,330,16.0,-999.0,-999,-99.99,,,-99.99,,2013-04-20 02:52:00,
2013-04-19 22:00:00,54.0,-99.9,30.14,NNW,340,13.0,-999.0,-999,-99.99,,,-99.99,,2013-04-20 03:00:00,
2013-04-19 22:22:00,54.0,-99.9,30.13,NNW,340,17.0,-999.0,-999,-99.99,,,-99.99,,2013-04-20 03:22:00,
2013-04-19 22:30:00,54.0,-99.9,30.15,NNW,330,13.0,-999.0,-999,-99.99,,,-99.99,,2013-04-20 03:30:00,
2013-04-19 22:53:00,54.0,-99.9,30.14,NNW,340,13.0,-999.0,-999,-99.99,,,-99.99,,2013-04-20 03:53:00,
2013-04-19 23:00:00,54.0,-99.9,30.16,NNW,330,11.0,-999.0,-999,-99.99,,,-99.99,,2013-04-20 04:00:00,
2013-04-19 23:12:00,54.0,-99.9,30.15,NNW,330,13.0,-999.0,-999,-99.99,,,-99.99,,2013-04-20 04:12:00,
2013-04-19 23:23:00,54.0,-99.9,30.15,NNW,330,13.0,-999.0,-999,-99.99,,,-99.99,,2013-04-20 04:23:00,
2013-04-19 23:30:00,54.0,-99.9,30.16,NNW,340,13.0,-999.0,-999,-99.99,,,-99.99,,2013-04-20 04:30:00,
2013-04-19 23:53:00,54.0,-99.9,30.16,NNW,330,11.0,-999.0,-999,-99.99,,,-99.99,,2013-04-20 04:53:00,